WetterOnline ( http://www.wetteronline.de )

Wetter aktuell Seelow

Aktuelles Wetter: Manschnow (16m)

6-stündlich | Neueste Meldungen
Ortszeit Temperatur Wetter
Do, 16.08. 2:00 15.6° C bedeckt
Mi, 15.08. 20:00 22.7° C bedeckt
Mi, 15.08. 14:00 24.4° C wolkig
Mi, 15.08. 8:00 18.9° C bedeckt
Mi, 15.08. 2:00 19.1° C bewölkt
Di, 14.08. 20:00 23.1° C wolkig
Di, 14.08. 14:00 24.6° C bewölkt
Di, 14.08. 8:00 19.6° C wolkig
Ortszeit Temperatur Wetter
Do, 16.08. 5:30 12.6° C fast wolkenlos
Do, 16.08. 5:20 12.6° C fast wolkenlos
Do, 16.08. 5:10 12.4° C fast wolkenlos
Do, 16.08. 5:00 12.7° C leicht bewölkt
Do, 16.08. 4:50 12.7° C leicht bewölkt
Do, 16.08. 4:40 12.9° C leicht bewölkt
Do, 16.08. 4:30 12.8° C wolkig
Do, 16.08. 4:00 13.1° C bedeckt
Do, 16.08. 3:30 13.8° C bedeckt
Do, 16.08. 3:00 14.4° C wolkig
Do, 16.08. 2:30 15.0° C bedeckt
Ortszeit Relative Feuchte Sichtweite
Do, 16.08. 2:00 83% 29 km
Mi, 15.08. 20:00 53% 45 km
Mi, 15.08. 14:00 42% 30 km
Mi, 15.08. 8:00 75% 22 km
Mi, 15.08. 2:00 80% 30 km
Di, 14.08. 20:00 54% 30 km
Di, 14.08. 14:00 46% 23 km
Di, 14.08. 8:00 70% 26 km
Ortszeit Relative Feuchte Sichtweite
Do, 16.08. 5:30 91% 17 km
Do, 16.08. 5:20 91% -
Do, 16.08. 5:10 91% -
Do, 16.08. 5:00 89% 17 km
Do, 16.08. 4:50 89% -
Do, 16.08. 4:40 88% -
Do, 16.08. 4:30 88% 20 km
Do, 16.08. 4:00 87% 25 km
Do, 16.08. 3:30 88% 26 km
Do, 16.08. 3:00 86% 27 km
Do, 16.08. 2:30 84% 29 km
Ortszeit Niederschlagsmenge Niederschlagsart
Do, 16.08. 2:00 0.0 l/m2 in 6 Std. -
Mi, 15.08. 20:00 0.0 l/m2 in 12 Std. -
Mi, 15.08. 14:00 0.0 l/m2 in 6 Std. -
Mi, 15.08. 8:00 0.0 l/m2 in 12 Std. -
Mi, 15.08. 2:00 0.0 l/m2 in 6 Std. -
Di, 14.08. 20:00 0.0 l/m2 in 12 Std. -
Di, 14.08. 14:00 0.0 l/m2 in 6 Std. -
Di, 14.08. 8:00 0.1 l/m2 in 12 Std. -
Ortszeit Niederschlagsmenge Niederschlagsart
Do, 16.08. 5:30 0.0 l/m2 in 1 Std. -
Do, 16.08. 5:20 keine Meldung -
Do, 16.08. 5:10 keine Meldung -
Do, 16.08. 5:00 0.0 l/m2 in 1 Std. -
Do, 16.08. 4:50 keine Meldung -
Do, 16.08. 4:40 keine Meldung -
Do, 16.08. 4:30 0.0 l/m2 in 1 Std. -
Do, 16.08. 4:00 0.0 l/m2 in 1 Std. -
Do, 16.08. 3:30 0.0 l/m2 in 1 Std. -
Do, 16.08. 3:00 0.0 l/m2 in 1 Std. -
Do, 16.08. 2:30 0.0 l/m2 in 1 Std. -
Ortszeit Stärke Spitze Richtung
km/h Bft. km/h Grad Sektor
Do, 16.08. 2:00 4 1 7 150° SO
Mi, 15.08. 20:00 4 1 32 310° NW
Mi, 15.08. 14:00 15 3 35 300° NW
Mi, 15.08. 8:00 15 3 28 270° W
Mi, 15.08. 2:00 18 3 36 270° W
Di, 14.08. 20:00 15 3 35 250° W
Di, 14.08. 14:00 17 3 35 250° W
Di, 14.08. 8:00 17 3 28 250° W
Ortszeit Stärke Spitze Richtung
km/h Bft. km/h Grad Sektor
Do, 16.08. 5:30 2 1 6 150° SO
Do, 16.08. 5:20 2 1 - 150° SO
Do, 16.08. 5:10 4 1 - 140° SO
Do, 16.08. 5:00 4 1 4 140° SO
Do, 16.08. 4:50 4 1 - 140° SO
Do, 16.08. 4:40 2 1 - 160° S
Do, 16.08. 4:30 4 1 4 130° SO
Do, 16.08. 4:00 2 1 4 130° SO
Do, 16.08. 3:30 2 1 4 360° N
Do, 16.08. 3:00 0 0 4 - -
Do, 16.08. 2:30 2 1 4 160° S
Ortszeit Untergrenze Bedeckung Gattung
total tief tief mittel hoch
Do, 16.08. 2:00 3300 m 7/8 - - - -
Mi, 15.08. 20:00 1800 m 8/8 8/8 - - -
Mi, 15.08. 14:00 1500 m 5/8 5/8 - - -
Mi, 15.08. 8:00 660 m 8/8 8/8 - - -
Mi, 15.08. 2:00 480 m 7/8 7/8 - - -
Di, 14.08. 20:00 1350 m 6/8 6/8 - - -
Di, 14.08. 14:00 1380 m 7/8 7/8 - - -
Di, 14.08. 8:00 750 m 5/8 4/8 - - -
Ortszeit Bedeckungsgrad in Achtel und Wolkenuntergrenze
Do, 16.08. 5:30 1(2400m)
Do, 16.08. 5:20 1(2400m)
Do, 16.08. 5:10 1(10500m)
Do, 16.08. 5:00 1(2400m) 4(10500m)
Do, 16.08. 4:50 1(2400m) 4(10500m)
Do, 16.08. 4:40 2(2400m) 4(10500m) 5(10500m)
Do, 16.08. 4:30 7(10500m) 5(10500m)
Do, 16.08. 4:00 9 9 9
Do, 16.08. 3:30 9 9 9
Do, 16.08. 3:00 1(2700m) 7(10500m)
Do, 16.08. 2:30 4(3600m) 4(10500m) 9
Ortszeit Luftdruck NN (hPa) Tendenz (hPa in 3 Std.)
Do, 16.08. 2:00 1020 + 0,4
Mi, 15.08. 20:00 1018 + 0,3
Mi, 15.08. 14:00 1018 + 0,2
Mi, 15.08. 8:00 1016 + 1,2
Mi, 15.08. 2:00 1014 + 1,1
Di, 14.08. 20:00 1011 + 0,5
Di, 14.08. 14:00 1010 + 0,2
Di, 14.08. 8:00 1009 + 1,2
Ortszeit Luftdruck NN (hPa) Tendenz (hPa in 3 Std.)
Do, 16.08. 5:30 1020 0,0
Do, 16.08. 5:20 1020 keine Meldung
Do, 16.08. 5:10 1020 keine Meldung
Do, 16.08. 5:00 1020 0,0
Do, 16.08. 4:50 1020 keine Meldung
Do, 16.08. 4:40 1020 keine Meldung
Do, 16.08. 4:30 1020 0,0
Do, 16.08. 4:00 1020 0,0
Do, 16.08. 3:30 1020 0,0
Do, 16.08. 3:00 1020 + 0,2
Do, 16.08. 2:30 1020 + 0,1
Ortszeit Schneehöhe (cm)
Do, 16.08. 2:00 -
Mi, 15.08. 20:00 -
Mi, 15.08. 14:00 -
Mi, 15.08. 8:00 -
Mi, 15.08. 2:00 -
Di, 14.08. 20:00 -
Di, 14.08. 14:00 -
Di, 14.08. 8:00 -
Ortszeit Schneehöhe (cm)
Do, 16.08. 5:30 -
Do, 16.08. 5:20 -
Do, 16.08. 5:10 -
Do, 16.08. 5:00 -
Do, 16.08. 4:50 -
Do, 16.08. 4:40 -
Do, 16.08. 4:30 -
Do, 16.08. 4:00 -
Do, 16.08. 3:30 -
Do, 16.08. 3:00 -
Do, 16.08. 2:30 -
Link zu dieser Seite / Seite empfehlen

Das Wetter in ...